[keps] orb08325.2l.amsat
Ray Hoad
r.hoad at att.net
Thu Nov 20 16:21:41 PST 2008
SB KEPS @ AMSAT $ORB08325.N
2Line Orbital Elements 08325.AMSAT
HR AMSAT ORBITAL ELEMENTS FOR AMATEUR SATELLITES IN NASA FORMAT
FROM WA5QGD FORT WORTH,TX November 20, 2008
Send Subscribe/unsubscribe to KEPS at
http://www.amsat.org/mailman/listinfo/keps
BID: ORB08325.N
DECODE 2-LINE ELSETS WITH THE FOLLOWING KEY:
1 AAAAAU 00 0 0 BBBBB.BBBBBBBB .CCCCCCCC 00000-0 00000-0 0 DDDZ
2 AAAAA EEE.EEEE FFF.FFFF GGGGGGG HHH.HHHH III.IIII JJ.JJJJJJJJKKKKKZ
KEY: A-CATALOGNUM B-EPOCHTIME C-DECAY D-ELSETNUM E-INCLINATION F-RAAN
G-ECCENTRICITY H-ARGPERIGEE I-MNANOM J-MNMOTION K-ORBITNUM Z-CHECKSUM
TO ALL RADIO AMATEURS BT
AO-07
1 07530U 74089B 08325.63441899 -.00000027 00000-0 10000-3 0 3320
2 07530 101.4505 351.8051 0011762 317.0379 042.9771 12.53574708556584
AO-10
1 14129U 83058B 08324.53625017 -.00000072 00000-0 10000-3 0 5908
2 14129 026.0377 185.1553 5958519 174.7238 196.7054 02.05868745191307
UO-11
1 14781U 84021B 08325.59969659 -.00000078 00000-0 -31391-5 0 8181
2 14781 098.1371 001.8256 0008121 292.7418 067.2962 14.79676860326983
RS-15
1 23439U 94085A 08325.19983016 -.00000039 00000-0 10000-3 0 1609
2 23439 064.8173 242.7643 0145624 092.4790 269.2817 11.27552685572554
FO-29
1 24278U 96046B 08325.90125009 -.00000021 00000-0 13552-4 0 9086
2 24278 098.5765 221.6014 0350700 169.7324 191.1226 13.52939603605585
SO-33
1 25509U 98061B 08324.57317785 .00000035 00000-0 -63226-5 0 3273
2 25509 031.4328 157.7555 0355370 305.7236 051.0817 14.28231614525846
AO-40
1 26609U 00072B 08324.79327884 -.00000256 00000-0 10000-3 0 1559
2 26609 008.1376 048.1672 7938590 146.5041 308.2339 01.25586505 36992
VO-52
1 28650U 05017B 08325.35758949 .00000447 00000-0 63289-4 0 844
2 28650 097.7719 027.5274 0027080 353.8299 006.2567 14.81524912191729
PO-63
1 29712U 07001D 08325.84635085 .00000569 00000-0 81310-4 0 9869
2 29712 097.8582 020.9497 0013243 230.3585 129.6454 14.80342156100648
AO-16
1 20439U 90005D 08324.97850530 -.00000007 00000-0 12834-4 0 4676
2 20439 098.2506 297.2386 0011932 073.2258 287.0237 14.31808412983214
LO-19
1 20442U 90005G 08325.48912018 -.00000071 00000-0 -11396-4 0 3928
2 20442 098.2186 305.7600 0012851 070.4315 289.8268 14.32045636983441
AO-27
1 22825U 93061C 08325.52658559 .00000028 00000-0 27681-4 0 1115
2 22825 098.4088 279.8566 0008803 154.4038 205.7596 14.29252091790101
IO-26
1 22826U 93061D 08324.92343278 -.00000012 00000-0 11910-4 0 8252
2 22826 098.4003 280.1148 0009248 152.3845 207.7836 14.29501850790117
GO-32
1 25397U 98043D 08325.05127324 .00000031 00000-0 31636-4 0 7515
2 25397 098.3473 352.3883 0001920 121.7363 238.4019 14.23151400538384
NO-44
1 26931U 01043C 08323.27606400 -.00000084 00000-0 -37783-6 0 292
2 26931 067.0530 247.6974 0006686 256.0498 103.9861 14.29538907372438
SO-50
1 27607U 02058C 08325.26280066 -.00000064 00000-0 12448-4 0 7492
2 27607 064.5602 299.6252 0084511 249.0584 110.1406 14.71395958317931
CO-55
1 27844U 03031E 08325.44527209 .00000041 00000-0 39474-4 0 4455
2 27844 098.7169 331.5528 0010510 030.1018 330.0756 14.20607544279627
CO-57
1 27848U 03031J 08323.06944597 .00000040 00000-0 38805-4 0 3947
2 27848 098.7168 328.2821 0010463 038.2739 321.9184 14.20413952279256
AO-51
1 28375U 04025K 08325.53165566 .00000018 00000-0 18050-4 0 2485
2 28375 098.0610 341.2378 0085170 038.6818 322.0432 14.40625050230912
CO-56
1 28941U 06005C 08325.83785922 .00044453 30942-5 26815-3 0 5698
2 28941 098.1228 099.0662 0139107 188.6198 171.2582 15.65414474154478
CP3
1 31128U 07012M 08325.14642880 -.00000047 00000-0 00000 0 0 4868
2 31128 098.0196 021.8347 0102259 211.9701 147.5286 14.51993083 84564
CP4
1 31132U 07012Q 08322.63879946 .00000071 00000-0 26122-4 0 4616
2 31132 098.0225 022.3611 0085009 211.2956 148.3156 14.55158745 84264
CO-65
1 32785U 08021C 08325.14900223 .00000403 00000-0 58321-4 0 2145
2 32785 097.9760 024.5270 0014905 355.0303 005.0760 14.81418151 30491
NOAA-10
1 16969U 86073A 08325.19460648 -.00000134 00000-0 -36374-4 0 3778
2 16969 098.7116 346.7752 0013130 086.7131 273.5568 14.27372659153699
NOAA-11
1 19531U 88089A 08324.88668687 -.00000083 00000-0 -20018-4 0 4034
2 19531 098.7937 052.0090 0011568 348.9924 011.1007 14.14881219 39922
NOAA-12
1 21263U 91032A 08325.51127258 .00000009 00000-0 22665-4 0 9138
2 21263 098.7713 327.4936 0013167 034.6772 325.5264 14.25554919910666
MET-3/5
1 21655U 91056A 08325.23405560 .00000051 00000-0 10000-3 0 5179
2 21655 082.5546 354.1338 0013493 349.7452 010.3391 13.17017037830123
MET-2/21
1 22782U 93055A 08325.62518217 -.00000027 00000-0 -37692-4 0 3067
2 22782 082.5488 347.4693 0021613 208.0426 151.9576 13.83630972768769
OKEAN-4
1 23317U 94066A 08325.56433185 .00000214 00000-0 23565-4 0 7523
2 23317 082.5382 169.1633 0021717 336.1349 023.8854 14.82652836761450
NOAA-14
1 23455U 94089A 08325.46162502 .00000169 00000-0 11295-3 0 3961
2 23455 098.9316 037.6728 0010131 065.5200 294.7032 14.13753490716439
NOAA-15
1 25338U 98030A 08324.98501351 .00000011 00000-0 23193-4 0 7059
2 25338 098.5696 312.9910 0009993 311.9815 048.0489 14.24732910546987
RESURS
1 25394U 98043A 08325.14862264 -.00000005 00000-0 15621-4 0 747
2 25394 098.3650 001.8481 0002294 090.8308 269.3134 14.24175731538642
FENGYUN1
1 25730U 99025A 08325.91746882 .00000769 00000-0 47747-3 0 6198
2 25730 098.7395 296.5164 0022048 080.3887 279.9773 14.07862863491017
OKEAN-0
1 25860U 99039A 08324.89126387 .00000034 00000-0 12439-4 0 5280
2 25860 097.7647 308.6776 0001589 089.6507 270.4885 14.73545259502329
NOAA-16
1 26536U 00055A 08325.75434147 -.00000013 00000-0 00000 0 0 1788
2 26536 099.1705 318.4706 0010838 142.8307 217.4101 14.12501988420875
NOAA-17
1 27453U 02032A 08325.46155335 -.00000012 00000-0 13313-4 0 1832
2 27453 098.5164 025.4114 0011856 017.8760 342.2836 14.24018760333047
NOAA-18
1 28654U 05018A 08325.46175690 .00000417 00000-0 25523-3 0 6691
2 28654 098.8846 264.5740 0013714 230.6595 129.3356 14.11211931180512
HUBBLE
1 20580U 90037B 08325.46112312 .00000346 00000-0 13901-4 0 2660
2 20580 028.4697 023.9165 0003980 238.8759 121.1437 15.00430077818475
PO-34
1 25520U 98064B 08323.11814862 .00000477 00000-0 13665-4 0 1241
2 25520 028.4607 228.1831 0005478 162.7209 197.3571 15.17260056556562
ISS
1 25544U 98067A 08325.53404133 .00010212 00000-0 79261-4 0 6937
2 25544 051.6423 294.9402 0003904 007.3379 098.1514 15.72500280573135
CO-58
1 28895U 05043F 08325.27331935 .00000047 00000-0 19559-4 0 1744
2 28895 098.0811 215.4350 0016726 282.2808 077.6525 14.59716271163255
FALCON
1 30776U 07006E 08325.20934408 .00000420 00000-0 33581-4 0 4427
2 30776 035.4343 287.1814 0001686 291.4230 068.6307 15.03107565 93634
MAST
1 31126U 07012K 08325.58346766 -.00000009 00000-0 86056-5 0 4654
2 31126 098.0201 023.6089 0094228 206.6322 153.0047 14.53459153 84731
CAPE1
1 31130U 07012P 08324.45036426 .00000138 00000-0 42829-4 0 4575
2 31130 098.0217 021.1806 0102133 214.1688 145.2917 14.52010020 84258
COMPASS
1 32787U 08021E 08325.81571437 .00000478 00000-0 67745-4 0 2054
2 32787 097.9702 025.1011 0015516 353.8718 006.2296 14.81501475 30594
AAUSAT2
1 32788U 08021F 08325.39515681 .00000230 00000-0 36052-4 0 2050
2 32788 097.9726 024.7112 0015308 357.0784 003.0344 14.81613527 30531
DO-64
1 32789U 08021G 08325.81548447 .00000616 00000-0 85196-4 0 2167
2 32789 097.9749 025.1842 0015477 353.2172 006.8825 14.81537517 30593
CO-66
1 32791U 08021J 08325.22788087 .00000303 00000-0 45552-4 0 1996
2 32791 097.9742 024.5413 0016109 353.8736 006.2262 14.81347629 30470
RS-30
1 32953U 08025A 08324.67490779 .00000010 00000-0 00000 0 0 1625
2 32953 082.5046 026.8958 0017742 275.3908 084.5155 12.42998160 22365
/EX
More information about the Keps
mailing list